Regional Weather Roundup
Issued by NWS Kansas City/Pleasant Hill, MO

Home | Current Version | Previous Version | Text Only | Print | Product List | Glossary On
Versions: 1 2 3 4 5 6 7 8 9 10 11 12 13 14 15 16 17 18 19 20 21 22 23 24 25 26 27 28
000
ASUS43 KEAX 290010
RWREAX

WEATHER ROUNDUP FOR EASTERN KANSAS AND NORTHWEST MISSOURI
NATIONAL WEATHER SERVICE KANSAS CITY/PLEASANT HILL MO
700 PM CDT WED SEP 28 2016

KSZ040-057-103>105-MOZ028-029-037-043-290100-
...KANSAS CITY METROPOLITAN AREA...

CITY           SKY/WX    TMP DP  RH WIND       PRES   REMARKS
K.C. INTL      PTCLDY    60  47  61 N9        30.20R
6HR MIN TEMP:  60; 6HR MAX TEMP:  67;

K.C. DOWNTOWN  MOCLDY    64  47  53 N9        30.19R
6HR MIN TEMP:  64; 6HR MAX TEMP:  70;

LEES SUMMIT    PTCLDY    62  48  60 N12       30.19R
6HR MIN TEMP:  62; 6HR MAX TEMP:  68;

OLATHE - IXD   CLEAR     62  47  57 N13       30.20R
6HR MIN TEMP:  61; 6HR MAX TEMP:  68;

OLATHE - OJC   CLEAR     61  46  57 N10       30.19R
6HR MIN TEMP:  61; 6HR MAX TEMP:  67;

LAWRENCE       CLEAR     62  49  62 N6        30.20R

$$

MOZ001>008-011>017-020>025-030>033-038>040-044>046-053-054-290100-
...NORTHERN AND CENTRAL MISSOURI...

CITY           SKY/WX    TMP DP  RH WIND       PRES   REMARKS
ST. JOSEPH     MOCLDY    63  48  58 N9        30.21R
6HR MIN TEMP:  63; 6HR MAX TEMP:  69;

MOSBY          CLOUDY    63  46  55 N14       30.20R
WHITEMAN AFB   MOCLDY    62  48  61 N13       30.16R
6HR MIN TEMP:  62; 6HR MAX TEMP:  68;

CLINTON        CLEAR     63  48  59 N9        30.16R
SEDALIA        PTCLDY    60  46  59 N9        30.17R
6HR MIN TEMP:  60; 6HR MAX TEMP:  71;

WARSAW         NOT AVBL
CHILLICOTHE      N/A     61  48  62 VRB5      30.21R
6HR MIN TEMP:  61; 6HR MAX TEMP:  68;

KIRKSVILLE     CLOUDY    59  49  69 NW10      30.18R
6HR MIN TEMP:  59; 6HR MAX TEMP:  62;


$$

MOZ041-047>049-056>058-063>065-088>090-097-290100-
...EASTERN AND SOUTHERN MISSOURI...

CITY           SKY/WX    TMP DP  RH WIND       PRES   REMARKS
ST. LOUIS INTL MOCLDY    62  45  53 NW7       30.11R
6HR MIN TEMP:  62; 6HR MAX TEMP:  70;

SPIRIT OF STL  PTCLDY    61  46  57 N12G17    30.11R
COLUMBIA       CLOUDY    61  47  59 N15       30.15R
JEFFERSON CITY CLOUDY    62  47  57 N7        30.14R
ROLLA          MOCLDY    60  47  61 N13       30.12R
OSAGE BEACH    CLEAR     60  49  66 N5        30.14R
SPRINGFIELD    CLEAR     64  46  52 N10       30.11R
BRANSON        CLEAR     66  46  48 N12       30.10R
JOPLIN         CLEAR     65  49  56 N8        30.13R
WEST PLAINS    CLEAR     63  44  50 N8        30.10R

$$

IAZ060-094-KSZ022-034>040-054-083-096-NEZ052-066-093-290100-
...KANSAS...SOUTHEAST NEBRASKA AND IOWA...

CITY           SKY/WX    TMP DP  RH WIND       PRES   REMARKS
TOPEKA         CLEAR     62  48  60 N8        30.20R
6HR MIN TEMP:  62; 6HR MAX TEMP:  69;

MANHATTAN      CLEAR     65  46  50 N7        30.21R
EMPORIA        CLEAR     63  48  58 N8        30.19R
CHANUTE        LGT RAIN  65  49  56 N10       30.15R
WICHITA        PTCLDY    69  47  45 NE15      30.17R
OMAHA          PTCLDY    61  46  57 N8        30.26R
LINCOLN        CLEAR     63  44  50 NE12      30.26R
FALLS CITY     CLEAR     63  47  55 N7        30.22R
LAMONI         CLOUDY    59  49  69 N8        30.22R
DES MOINES     CLOUDY    61  49  64 N9        30.22R

$$





USA.gov is the U.S. government's official web portal to all federal, state and local government web resources and services.